Location: Newark
(59.4564°N, 26.6917°E)
Time: 16:41:20
(UTC+00:00)

SR - Pass Details

Date: 26 November 2019
Orbit: 573 x 882 km, 66.7° (Epoch: 12 December)

Event Time Altitude Azimuth Distance (km) Brightness Sun altitude
Rises 20:00:40 0° 312° (NW) 3,488 ? -46.0°
Reaches altitude 10° 20:03:22 10° 304° (WNW) 2,552 ? -46.3°
Enters shadow 20:03:55 12° 301° (WNW) 2,375 ? -46.3°
Maximum altitude 20:08:38 34° 242° (WSW) 1,417 - -46.7°
Drops below altitude 10° 20:13:47 10° 179° (S) 2,487 - -47.1°
Sets 20:16:24 0° 171° (S) 3,387 - -47.3°
